Temperature
24 22 23 24 24 25 25 25 24 25 25 25 24 24 23 23 23 22 22 22 22 23 23 22 22 22 21 21 21 20 20 19 19 19 18 18 18 18 18 18 18 18 17 17
22 23 24 24 24 24 24 25 24 25 25 25 24 23 23 22 22 23 22 22 22 23 22 22 22 22 22 21 21 20 20 20 19 19 19 19 18 18 18 18 18 18 17 17
24 24 25 25 25 25 25 25 25 25 25 23 24 23 23 23 23 23 23 23 23 23 23 22 22 22 21 21 21 21 20 20 19 19 19 18 18 18 18 18 18 18 17 17
24 24 25 26 26 26 25 25 25 25 24 22 23 22 23 21 21 21 22 22 23 23 23 22 22 22 22 21 21 21 20 20 19 19 18 18 18 18 18 18 18 18 17 17
23 25 25 26 26 26 26 24 24 24 23 22 22 22 21 21 22 21 21 22 23 23 23 23 22 22 22 21 21 20 20 20 19 19 19 18 18 18 18 18 18 18 17 17
23 24 25 26 26 26 25 23 21 19 19 22 22 22 22 20 21 22 21 22 23 23 23 23 22 22 21 21 20 20 20 19 19 19 19 18 18 18 18 18 18 18 17 17
24 24 25 26 26 25 24 22 21 22 20 21 21 21 20 21 21 21 22 22 22 23 23 22 22 22 21 21 21 20 20 19 19 19 19 18 18 18 18 18 18 18 17 17
23 22 24 25 25 25 23 22 21 22 21 20 21 21 21 21 22 22 22 22 22 22 23 23 22 22 21 21 20 20 20 19 19 19 19 18 18 18 18 18 18 18 18 17
21 22 23 25 25 23 23 21 20 18 20 21 20 21 21 21 21 21 21 21 22 22 23 23 22 22 21 21 21 20 20 19 19 19 19 18 18 18 18 18 18 17 17 17
21 23 24 24 24 23 22 18 18 18 20 21 22 21 21 22 21 21 20 21 22 22 23 22 22 22 21 21 20 20 20 19 19 19 19 18 18 18 18 18 17 17 17 17
21 22 23 23 25 24 22 20 17 16 18 19 21 21 21 21 21 20 20 21 22 22 22 22 22 22 21 21 20 20 20 19 19 19 18 18 18 18 18 17 17 17 17 17
19 18 20 22 23 23 23 21 18 20 20 17 19 21 22 20 20 21 21 22 22 22 22 22 22 22 21 21 21 20 20 20 19 19 18 18 18 18 18 17 17 17 17 17
19 18 20 21 22 23 23 20 19 17 16 16 19 22 21 20 20 21 21 22 22 22 22 22 22 21 21 21 20 20 20 20 19 18 18 18 18 18 18 18 17 17 17 17
19 17 19 21 21 22 23 22 19 19 18 18 19 21 22 20 20 20 21 22 22 22 22 22 22 21 21 21 20 20 20 19 19 18 18 18 18 18 18 18 17 17 17 16
19 19 19 20 21 22 23 23 20 21 19 20 21 20 21 20 20 21 21 21 21 22 22 22 22 22 21 21 20 20 20 19 19 18 18 18 18 18 18 17 17 17 16 16
16 18 19 21 21 22 23 23 21 22 21 21 21 21 20 20 21 21 21 21 21 22 23 23 22 22 21 21 21 20 20 19 18 18 18 18 18 17 17 17 17 16 16 16
15 17 18 19 21 22 22 21 21 21 21 21 21 21 20 19 20 21 21 21 22 23 23 23 22 22 22 21 21 20 19 19 18 18 18 18 17 17 17 17 16 16 16 15
15 15 15 17 20 21 20 20 21 20 20 19 19 19 19 20 20 21 22 22 23 23 23 23 22 22 21 21 20 20 19 19 18 18 18 17 17 17 17 16 16 16 15 15
14 15 15 15 18 19 21 21 20 20 20 19 18 19 19 19 20 20 21 22 23 23 23 23 22 21 21 21 20 19 19 18 18 18 17 17 17 16 16 16 16 15 15 15
14 14 15 15 18 19 20 20 20 20 20 19 18 18 18 19 18 19 20 21 22 22 22 22 21 21 21 20 19 19 18 18 18 17 17 17 16 16 16 16 15 15 15 15
16 15 15 16 17 18 18 18 19 20 19 18 18 18 18 18 18 19 20 21 21 21 21 21 21 21 20 20 19 19 18 18 18 17 17 16 16 16 15 15 15 15 14 14
15 15 14 14 17 18 17 17 18 17 18 18 18 18 18 18 18 19 20 20 21 21 21 20 20 20 19 19 19 19 18 18 17 17 16 16 15 15 15 15 15 14 14 14
13 13 13 14 15 15 15 16 17 17 17 18 18 18 18 18 18 19 19 19 20 20 20 20 19 19 19 19 18 18 18 17 17 16 16 16 15 15 15 14 14 14 14 13
13 12 12 13 14 15 15 16 17 17 18 18 18 18 19 18 18 18 18 18 19 19 19 19 19 19 18 18 18 18 17 17 16 16 16 15 15 15 14 14 14 13 13 13
12 12 12 13 14 15 16 16 17 17 18 18 18 18 18 18 18 18 18 18 18 18 18 18 18 18 18 17 17 17 16 16 16 15 15 15 15 14 14 14 13 13 13 12
11 12 13 13 14 13 15 16 17 17 17 18 18 18 18 18 18 18 18 18 17 17 17 17 17 17 17 16 16 16 16 16 15 15 15 15 14 14 14 13 13 12 12 12
Wind_Speed
5 5 1 4 5 4 2 1 4 5 3 2 2 1 2 4 6 7 8 8 9 11 7 7 8 10 9 9 10 10 9 8 7 5 4 4 3 3 3 5 7 9 9 9
6 2 5 3 3 3 3 1 3 4 4 3 2 2 0 3 5 7 8 9 10 8 6 7 7 9 10 10 10 10 10 9 8 6 5 3 3 2 2 3 5 7 8 8
4 5 2 2 1 1 1 3 3 1 4 6 4 5 2 1 2 3 5 6 7 9 9 8 8 9 9 10 11 11 10 9 8 7 4 3 2 1 1 2 2 4 7 8
4 5 1 1 2 4 3 4 3 3 4 3 3 1 5 3 3 4 6 7 7 7 7 8 8 8 9 9 8 8 8 7 7 7 6 6 5 4 4 3 3 3 5 7
4 2 1 2 4 5 4 3 4 3 5 3 4 2 7 2 4 6 5 5 6 7 9 9 9 9 8 7 7 6 7 7 7 7 8 7 5 4 2 2 3 3 3 5
5 3 4 5 2 3 5 7 7 6 5 2 2 1 6 4 6 5 3 4 6 7 7 7 6 6 5 6 6 6 7 6 7 7 7 7 7 5 4 3 3 3 2 3
3 4 4 3 1 3 6 6 5 6 5 4 3 2 8 7 6 6 6 6 6 7 7 6 6 6 7 7 8 7 8 7 7 7 7 7 7 7 6 5 4 4 2 3
4 6 5 4 7 6 5 9 8 5 4 5 3 4 7 5 4 2 4 6 7 7 7 7 6 7 7 7 8 8 8 7 7 7 6 5 5 5 4 5 4 4 3 3
8 6 5 4 4 10 7 4 7 8 4 0 5 7 8 1 1 2 4 6 7 7 7 7 6 7 7 7 8 8 8 7 7 6 6 5 4 4 4 4 4 3 3 2
9 4 5 4 5 5 6 10 7 7 6 2 5 5 5 6 5 4 5 7 7 6 6 6 6 6 6 6 5 7 8 7 6 6 6 5 4 3 4 4 4 3 3 2
7 4 5 3 4 7 6 6 6 6 6 7 3 7 7 9 8 9 8 7 7 7 7 6 5 5 5 5 6 6 7 6 6 6 5 4 4 3 3 3 3 3 3 3
6 6 3 7 4 2 5 8 9 6 5 5 5 8 6 7 7 7 7 6 6 6 5 5 5 5 5 5 5 6 6 6 6 5 5 4 3 3 3 3 2 2 2 2
7 7 2 6 5 1 4 5 5 7 7 6 6 8 3 1 3 5 6 6 5 5 5 5 5 5 5 5 5 5 5 5 5 5 5 4 3 3 3 2 2 2 2 2
7 6 7 9 8 5 4 5 6 7 6 6 8 8 6 4 5 6 6 6 6 6 6 6 5 5 5 5 5 5 5 5 5 5 5 4 3 3 3 2 2 2 2 2
6 5 5 5 5 4 4 6 7 7 9 9 9 9 10 9 9 8 6 7 7 7 7 7 7 6 6 5 5 5 5 5 5 5 5 4 4 3 3 3 3 3 3 2
4 5 4 1 2 3 2 2 6 5 5 6 4 7 8 3 3 4 6 8 9 9 9 8 7 7 7 7 6 5 5 5 5 5 5 4 4 4 3 3 3 3 3 3
3 6 5 3 2 3 2 3 4 3 2 5 7 7 2 2 6 8 9 9 9 9 9 9 8 7 7 7 7 6 5 5 5 5 4 4 4 4 3 3 4 3 3 3
6 5 4 3 3 5 7 2 3 4 1 1 4 4 3 4 2 2 4 7 8 7 8 7 6 6 5 6 6 6 6 5 5 4 4 4 4 4 4 4 4 3 3 3
4 7 5 4 4 3 3 1 2 3 1 2 3 2 1 3 4 3 1 4 6 6 6 5 6 6 6 7 7 8 6 5 4 4 4 5 5 5 4 4 3 3 3 3
6 5 6 5 5 7 6 2 2 4 1 3 1 2 2 4 3 2 1 2 3 3 4 5 6 7 7 6 7 8 6 5 4 4 4 5 5 5 5 4 3 3 3 2
4 5 4 4 3 5 5 6 1 4 5 2 1 2 3 2 2 1 1 2 4 4 5 6 7 6 5 7 8 7 6 5 4 4 5 5 5 5 5 4 3 4 4 3
3 3 3 4 4 6 4 3 3 4 1 1 1 2 4 4 3 3 3 4 5 5 6 7 7 6 4 6 7 7 5 4 5 5 5 5 5 4 5 5 4 4 4 3
2 4 5 5 5 4 3 2 1 1 2 1 3 3 5 5 4 4 5 5 6 5 5 5 7 6 5 5 6 6 5 5 6 5 5 4 4 4 4 5 4 3 3 2
1 1 3 1 2 3 4 3 3 2 2 2 3 4 5 5 5 5 5 5 5 5 4 4 5 6 4 3 4 4 5 6 7 6 5 5 5 4 4 4 3 3 3 2
2 1 3 1 2 3 4 3 2 3 4 5 5 4 5 6 5 4 4 4 4 4 4 3 4 4 3 3 3 4 5 6 6 6 5 4 4 5 4 3 2 2 1 2
2 3 4 5 5 3 3 3 2 3 3 4 5 4 4 4 4 4 3 3 3 4 4 4 3 3 3 3 3 3 4 6 7 5 4 4 4 4 4 4 3 4 3 2
Wind_Direction
36 69 159 210 186 180 189 240 288 280 291 116 175 233 215 176 175 177 180 186 195 210 204 175 172 170 169 173 175 178 176 175 169 168 176 179 194 196 201 208 208 205 202 196
39 303 239 204 180 175 183 264 293 318 8 85 82 359 268 192 200 190 191 198 201 204 188 178 168 170 176 179 181 181 183 181 182 184 179 173 168 179 197 206 205 206 203 200
176 241 242 175 188 134 230 208 222 234 22 39 63 357 327 272 220 202 199 206 204 199 192 185 178 179 177 184 189 190 188 184 185 176 153 130 111 112 155 195 204 206 204 206
226 258 238 215 221 153 262 244 189 140 89 356 52 281 287 269 264 224 211 204 204 193 179 181 182 181 184 193 190 188 181 179 181 172 173 176 183 194 200 194 196 197 202 206
233 231 171 235 225 174 201 63 89 91 109 55 25 123 286 317 260 249 232 207 194 182 179 182 183 187 188 180 180 180 174 177 177 178 181 181 191 200 182 170 185 199 206 210
234 244 219 217 215 163 133 72 55 50 70 55 317 154 276 254 237 244 221 190 177 170 170 169 165 162 165 159 166 167 174 184 179 181 183 184 188 185 176 189 199 204 207 213
298 290 255 196 112 48 92 85 32 10 18 260 291 214 252 260 249 221 203 184 167 162 161 161 164 163 175 169 171 172 175 185 184 184 189 192 193 188 192 197 202 203 208 220
190 278 254 202 182 170 154 136 154 184 211 277 332 252 261 277 275 222 185 166 158 165 166 168 173 175 182 180 177 174 180 182 182 184 189 187 190 193 199 198 197 203 210 219
178 245 285 255 194 139 131 145 152 128 144 351 296 294 306 320 10 148 162 159 164 171 169 167 169 177 179 180 173 175 179 179 182 184 179 177 186 190 195 190 185 195 204 208
158 220 289 306 87 45 136 139 106 118 140 222 297 289 255 251 227 203 191 183 178 170 168 165 170 179 180 178 171 167 173 178 178 175 178 180 182 183 182 178 185 194 201 196
147 169 300 359 167 165 112 101 103 109 142 151 222 270 229 224 212 200 202 194 185 180 176 171 170 170 165 153 155 164 165 162 165 169 171 166 168 168 159 172 190 194 193 190
147 134 235 266 263 185 165 163 147 149 189 165 169 261 267 236 216 196 197 191 182 178 171 165 158 147 146 152 157 162 160 162 163 163 162 164 160 156 162 179 190 184 183 184
140 125 102 335 339 64 146 149 142 122 117 147 166 258 305 317 194 194 193 187 174 171 158 146 141 146 153 156 160 161 160 159 152 147 152 155 155 154 165 172 167 155 157 159
127 123 164 192 212 192 167 160 150 129 145 185 213 245 285 253 222 211 201 185 172 170 165 160 160 161 160 157 160 158 152 148 146 143 144 151 155 152 155 148 135 137 143 146
119 150 186 212 216 181 180 178 169 172 178 183 221 224 247 230 213 206 192 170 164 171 177 179 176 171 161 156 160 152 141 136 138 138 140 153 153 144 132 121 118 122 122 128
96 146 148 209 225 196 184 191 176 187 179 203 220 250 255 231 164 176 177 172 180 190 190 185 177 172 172 169 163 151 147 143 139 142 152 153 144 139 136 131 124 116 106 98
112 124 124 209 264 108 236 229 179 174 184 179 207 237 245 174 182 193 190 184 189 194 190 184 182 180 176 168 159 157 152 140 140 148 151 148 145 139 137 132 120 114 107 99
137 119 127 137 111 193 240 248 153 142 152 252 252 259 231 203 181 166 179 184 193 193 189 186 175 167 160 148 142 139 136 138 143 147 147 148 146 141 135 125 119 108 103 105
145 134 121 127 158 240 277 159 140 154 272 310 254 244 143 129 80 27 68 171 186 188 183 169 156 151 146 143 142 135 134 132 135 152 158 156 152 146 140 135 126 116 110 101
62 90 115 125 145 208 229 284 316 127 286 301 273 180 157 117 124 258 340 112 130 134 136 136 134 129 136 142 138 137 142 141 153 167 161 153 150 150 149 146 130 116 115 110
47 52 103 139 171 246 263 301 358 157 231 286 249 184 146 137 185 209 43 86 101 109 117 121 121 126 137 141 141 143 146 158 156 142 139 140 145 148 141 131 124 122 114 105
151 132 151 137 158 237 311 358 160 200 195 110 97 102 106 100 82 74 73 85 93 98 109 119 122 120 121 133 142 148 158 157 136 133 133 134 136 138 132 125 116 113 114 112
148 181 175 180 202 263 310 279 290 154 134 107 98 90 103 95 79 74 80 82 86 97 106 114 123 121 124 132 145 154 158 143 136 133 133 127 121 117 120 126 129 121 119 119
340 115 117 77 318 324 341 5 23 47 105 101 109 107 96 92 92 88 94 94 94 93 98 101 114 121 123 124 130 140 141 144 142 142 141 135 130 122 116 118 125 132 139 144
264 104 104 97 277 348 357 359 12 45 71 78 78 88 97 98 96 103 109 106 104 96 88 92 107 120 127 122 113 121 132 140 142 144 142 137 132 133 125 112 102 131 148 175
242 180 160 199 218 189 255 306 351 63 67 78 82 68 68 101 119 115 110 109 105 107 106 108 112 121 127 126 121 123 137 145 148 150 153 150 144 143 142 137 103 64 79 81
Height
1508 1514 1520 1518 1517 1518 1521 1525 1527 1520 1512 1514 1517 1518 1516 1515 1517 1519 1521 1523 1524 1525 1528 1532 1535 1537 1540 1542 1545 1547 1550 1552 1555 1557 1558 1560 1562 1564 1566 1567 1568 1570 1571 1572
1515 1518 1513 1512 1514 1517 1520 1525 1525 1519 1513 1515 1519 1520 1517 1516 1517 1518 1519 1521 1523 1525 1527 1530 1533 1536 1538 1541 1543 1545 1548 1551 1553 1555 1557 1559 1561 1562 1564 1566 1567 1568 1570 1571
1516 1514 1509 1511 1513 1516 1519 1522 1521 1521 1517 1518 1521 1527 1521 1517 1517 1518 1519 1520 1521 1523 1526 1528 1531 1534 1537 1539 1542 1544 1546 1549 1552 1554 1556 1558 1559 1560 1562 1564 1565 1566 1568 1569
1513 1509 1509 1510 1512 1514 1522 1513 1515 1518 1527 1535 1529 1544 1527 1521 1518 1516 1516 1517 1519 1522 1524 1527 1530 1532 1535 1538 1541 1543 1546 1548 1550 1552 1554 1555 1557 1558 1559 1561 1563 1564 1566 1567
1512 1508 1508 1511 1509 1509 1513 1511 1515 1520 1528 1538 1536 1544 1536 1523 1521 1516 1514 1515 1517 1519 1522 1525 1527 1530 1533 1536 1539 1542 1544 1546 1548 1550 1552 1554 1555 1557 1558 1559 1561 1562 1563 1565
1508 1505 1505 1505 1504 1505 1508 1516 1523 1532 1539 1551 1541 1545 1541 1527 1519 1514 1512 1513 1515 1517 1519 1522 1526 1530 1532 1535 1537 1540 1542 1544 1546 1548 1550 1551 1553 1554 1556 1557 1559 1560 1561 1562
1511 1506 1502 1501 1505 1507 1512 1530 1551 1552 1561 1556 1542 1543 1538 1517 1511 1510 1510 1512 1514 1516 1519 1522 1525 1527 1530 1532 1535 1537 1540 1542 1543 1546 1547 1549 1551 1553 1554 1555 1557 1558 1559 1560
1521 1522 1504 1500 1503 1510 1514 1525 1551 1560 1563 1557 1544 1543 1526 1512 1509 1508 1509 1510 1513 1516 1518 1521 1524 1526 1528 1530 1532 1535 1537 1539 1542 1543 1545 1547 1549 1550 1552 1553 1555 1556 1557 1558
1522 1520 1501 1498 1498 1503 1516 1524 1527 1548 1553 1557 1550 1537 1520 1510 1509 1508 1509 1510 1512 1514 1517 1520 1522 1525 1527 1528 1530 1533 1536 1537 1540 1541 1543 1545 1546 1547 1549 1551 1552 1554 1555 1556
1508 1515 1504 1499 1498 1503 1507 1519 1535 1547 1561 1561 1550 1542 1532 1515 1511 1509 1510 1510 1511 1514 1516 1519 1521 1523 1525 1527 1528 1531 1533 1535 1537 1539 1541 1543 1544 1545 1547 1548 1550 1551 1552 1553
1502 1513 1510 1504 1503 1508 1513 1521 1532 1545 1547 1560 1559 1544 1513 1509 1506 1506 1507 1508 1510 1513 1516 1518 1520 1522 1524 1526 1528 1530 1532 1533 1535 1537 1539 1541 1542 1544 1545 1546 1547 1549 1550 1551
1500 1513 1520 1511 1500 1499 1502 1512 1524 1536 1544 1550 1552 1540 1502 1502 1502 1503 1505 1507 1510 1512 1515 1517 1520 1522 1523 1525 1527 1528 1530 1531 1533 1536 1538 1539 1541 1543 1544 1545 1546 1547 1547 1548
1499 1513 1526 1521 1515 1505 1505 1510 1515 1525 1540 1552 1550 1532 1502 1501 1501 1502 1504 1506 1509 1511 1514 1517 1519 1521 1523 1525 1527 1528 1529 1531 1532 1535 1536 1538 1540 1541 1542 1543 1544 1545 1546 1546
1490 1508 1518 1525 1518 1507 1505 1508 1513 1520 1536 1543 1537 1522 1506 1503 1502 1501 1502 1504 1507 1510 1513 1516 1518 1521 1523 1525 1527 1528 1529 1530 1532 1534 1535 1537 1538 1540 1541 1541 1542 1543 1544 1544
1490 1504 1505 1504 1501 1500 1500 1502 1508 1511 1517 1524 1519 1517 1505 1499 1498 1498 1500 1503 1506 1509 1511 1514 1517 1519 1522 1524 1526 1528 1529 1531 1532 1534 1535 1536 1537 1538 1539 1540 1540 1541 1541 1542
1492 1501 1503 1503 1500 1499 1500 1500 1502 1504 1507 1510 1508 1508 1495 1495 1496 1498 1500 1501 1504 1506 1509 1511 1515 1518 1520 1522 1525 1527 1529 1531 1532 1533 1534 1535 1536 1537 1538 1538 1539 1539 1540 1540
1496 1501 1510 1513 1503 1501 1510 1502 1501 1502 1501 1503 1506 1500 1494 1494 1494 1495 1497 1499 1501 1504 1507 1510 1513 1516 1519 1522 1524 1526 1528 1530 1531 1532 1533 1534 1535 1536 1537 1537 1538 1538 1539 1539
1495 1503 1512 1515 1510 1520 1508 1495 1496 1499 1500 1499 1497 1494 1493 1492 1493 1495 1497 1498 1500 1503 1506 1509 1512 1515 1519 1521 1523 1525 1527 1528 1529 1530 1531 1532 1534 1534 1535 1536 1537 1537 1538 1538
1489 1498 1512 1519 1520 1514 1502 1495 1496 1499 1501 1497 1495 1493 1492 1492 1493 1495 1496 1498 1500 1502 1505 1508 1511 1514 1517 1520 1522 1524 1526 1527 1528 1529 1530 1530 1532 1533 1534 1535 1536 1536 1537 1537
1491 1495 1507 1516 1518 1521 1504 1493 1492 1496 1502 1495 1494 1492 1492 1492 1498 1497 1496 1497 1499 1502 1504 1507 1510 1513 1516 1518 1521 1522 1524 1525 1526 1528 1528 1529 1531 1532 1533 1534 1534 1535 1536 1536
1499 1504 1509 1513 1514 1509 1497 1493 1493 1506 1504 1495 1493 1492 1492 1493 1495 1496 1496 1497 1498 1501 1504 1507 1509 1512 1515 1517 1519 1521 1523 1524 1525 1526 1527 1528 1529 1531 1532 1533 1533 1534 1535 1535
1503 1507 1511 1514 1514 1512 1495 1493 1496 1497 1493 1493 1493 1492 1493 1494 1494 1495 1495 1497 1498 1501 1504 1506 1508 1511 1514 1516 1518 1520 1522 1524 1524 1525 1526 1527 1528 1529 1530 1531 1532 1533 1534 1534
1502 1503 1505 1507 1507 1499 1495 1494 1494 1494 1493 1494 1494 1494 1494 1495 1495 1496 1496 1498 1499 1502 1505 1507 1508 1510 1512 1515 1518 1519 1521 1523 1524 1524 1525 1526 1527 1528 1529 1530 1531 1532 1533 1533
1500 1499 1501 1503 1500 1497 1496 1495 1494 1494 1494 1495 1495 1495 1496 1496 1496 1497 1498 1499 1501 1503 1506 1508 1509 1511 1512 1515 1517 1518 1520 1521 1522 1523 1524 1524 1525 1526 1528 1528 1529 1530 1530 1531
1499 1499 1501 1502 1500 1498 1497 1496 1496 1495 1496 1496 1496 1497 1497 1497 1497 1498 1499 1500 1502 1503 1505 1508 1510 1511 1512 1514 1516 1517 1518 1520 1521 1522 1523 1523 1524 1525 1526 1527 1527 1528 1529 1529
1498 1498 1500 1501 1498 1498 1498 1497 1497 1496 1497 1497 1497 1498 1498 1499 1499 1499 1500 1501 1502 1504 1506 1508 1510 1511 1512 1514 1515 1516 1517 1518 1519 1520 1521 1522 1522 1523 1524 1525 1526 1527 1528 1528